Flag for Reunion (French) Weather past 2 weeks in Saint-Denis, Reunion (French)

Now
66 °F

Clear.


Feels Like: 66 °F
Forecast: 69 / 79 °F
Wind: 6 mph from South

Location: Saint-Denis / Gillot

Current Time: Sep 21, 2014 at 2:31:48 AM

Latest Report: Sep 21, 2014 at 2:00 AM


Visibility: N/A

Pressure: 30.09 "Hg

Humidity: 73%

Dew point: 57 °F

Location of Saint-DenisLocation

Historic Weather in Saint-Denis — Graph

°F

Saint-Denis temperature yesterday

Maximum temperature yesterday: 82 °F (at 12:00 PM)
Minimum temperature yesterday: 68 °F (at 6:00 AM)
Average temperature yesterday: 75 °F

Past Weeks' High & Low Weather Summary

 TemperatureHumidityPressure
High82 °F (Sep 20, 12:00 PM)88% (Sep 7, 9:00 PM)30.33 "Hg (Sep 7, 9:00 PM)
Low61 °F (Sep 11, 3:00 AM)39% (Sep 7, 12:30 PM)30.04 "Hg (Sep 17, 2:00 PM)
Average72 °F65%30.18 "Hg
* Reported Sep 6 1:00 AM — Sep 21 1:00 AM, Saint-Denis, Weather by CustomWeather, © 2014

Note: Actual official high and low records may vary slightly from our data, if they occured in-between our weather recording intervals... More about our weather records

Advertising

Saint-Denis weather history for previous 24 hours

 ConditionsComfort  
Time TempWeatherWind HumidityBarometerVisibility
1:00 AM
Sep 21
68 °FClear.6 mph69%30.12 "HgN/A
12:30 AM68 °FClear.5 mph69%30.12 "HgN/A
12:00 AM68 °FClear.8 mph69%30.12 "HgN/A
11:30 PM
Sep 20
70 °FClear.5 mph64%30.15 "HgN/A
11:00 PM70 °FPassing clouds.6 mph64%30.15 "HgN/A
10:30 PM70 °FPassing clouds.7 mph69%30.15 "HgN/A
10:00 PM72 °FPassing clouds.7 mph69%30.15 "HgN/A
9:30 PM72 °FPassing clouds.7 mph69%30.15 "HgN/A
5:30 PM77 °FPassing clouds.10 mph61%30.09 "HgN/A
5:00 PM77 °FPartly sunny.13 mph61%30.09 "HgN/A
4:30 PM79 °FPartly sunny.13 mph65%30.07 "HgN/A
4:00 PM77 °FPartly sunny.14 mph69%30.07 "HgN/A
3:00 PM79 °FScattered clouds.16 mph65%30.07 "HgN/A
2:30 PM81 °FPassing clouds.18 mph62%30.07 "HgN/A
2:00 PM81 °FPassing clouds.17 mph58%30.09 "HgN/A
1:30 PM81 °FPassing clouds.18 mph58%30.09 "HgN/A
1:00 PM81 °FPassing clouds.20 mph58%30.12 "HgN/A
12:39 PM81 °FPassing clouds.20 mph58%30.12 "HgN/A
12:00 PM82 °FPassing clouds.15 mph48%30.12 "HgN/A
11:30 AM79 °FScattered clouds.21 mph61%30.15 "HgN/A
11:00 AM81 °FPartly sunny.18 mph58%30.15 "HgN/A
10:30 AM79 °FPartly sunny.17 mph54%30.15 "HgN/A
10:00 AM77 °FPartly sunny.21 mph57%30.18 "HgN/A
9:30 AM79 °FPartly sunny.17 mph51%30.18 "HgN/A
8:47 AM81 °FPassing clouds.17 mph48%30.18 "HgN/A
8:00 AM77 °FPassing clouds.16 mph51%30.18 "HgN/A
7:30 AM72 °FPassing clouds.12 mph61%30.18 "HgN/A
7:00 AM70 °FPassing clouds.12 mph64%30.15 "HgN/A
6:30 AM68 °FPassing clouds.8 mph73%30.15 "HgN/A
6:00 AM68 °FClear.9 mph73%30.15 "HgN/A
5:00 AM70 °FClear.12 mph69%30.15 "HgN/A
4:00 AM72 °FPassing clouds.10 mph65%30.12 "HgN/A
3:30 AM72 °FClear.9 mph65%30.12 "HgN/A
3:00 AM70 °FClear.10 mph69%30.15 "HgN/A
2:30 AM72 °FClear.12 mph65%30.15 "HgN/A
2:00 AM72 °FPassing clouds.12 mph65%30.15 "HgN/A
Weather by CustomWeather, © 2014

See weather overviewHow to use our weather pages